Weather observations for the past three days for
Dallas/Fort Worth International Airport
Imperial (Metric)
Date Time (cdt) Wind (mph) Vis. (mi.) Weather Sky Cond. Temperature (ºF) Relative Humidity Wind Chill (°F) Heat Index (°F) Pressure Precipitation (in)
Air Dwpt 6 hour altimeter (in) sea level (mb) 1 hr 3 hr 6 hr
Max. Min.
15 21:53 S 7 10.00 Partly Cloudy FEW065 SCT250 84 66 55% 86 29.85 1009.8
15 20:53 S 13 10.00 Mostly Cloudy FEW065 BKN250 87.1 66 50% 89 29.83 1009.1
15 19:53 SE 13 G 21 10.00 Mostly Cloudy FEW060 BKN250 89.1 66 47% 92 29.83 1009.1
15 18:53 SE 13 10.00 Mostly Cloudy SCT060 BKN250 91 66 93 90 44% 94 29.83 1009.0
15 17:53 SE 12 10.00 Partly Cloudy SCT060 SCT250 91.9 66 43% 95 29.83 1009.0
15 15:53 S 14 10.00 Mostly Cloudy BKN060 BKN250 93 68 44% 97 29.86 1010.1
15 14:53 S 10 G 21 10.00 Partly Cloudy SCT055 91.9 70 49% 98 29.87 1010.5
15 13:53 S 14 10.00 Partly Cloudy SCT050 91.9 69.1 47% 97 29.88 1011.0
15 12:53 S 9 10.00 Partly Cloudy SCT048 90 69.1 91 75 50% 95 29.91 1011.9
15 11:53 SW 5 10.00 Partly Cloudy SCT046 SCT200 88 69.1 54% 92 29.93 1012.4
15 10:53 S 7 10.00 A Few Clouds FEW040 FEW200 87.1 69.1 55% 91 29.94 1012.8
15 09:53 S 8 10.00 A Few Clouds FEW250 84.9 69.1 59% 89 29.94 1012.9
15 08:53 S 9 10.00 A Few Clouds FEW250 82 66.9 60% 85 29.95 1013.4
15 07:53 SE 3 10.00 A Few Clouds FEW250 79 69.1 72% 82 29.96 1013.5
15 06:53 E 3 10.00 A Few Clouds FEW250 75 66.9 79 73.9 76% 76 29.96 1013.4
15 05:53 Calm 10.00 Fair CLR 75 66.9 76% 76 29.94 1013.0
15 04:53 SE 3 10.00 Fair CLR 75.9 66.9 74% 77 29.93 1012.5
15 03:53 S 5 10.00 Fair CLR 77 66.9 71% 79 29.92 1012.2
15 02:53 S 5 10.00 Fair CLR 77 66.9 71% 79 29.92 1012.1
15 01:53 SE 6 10.00 Fair CLR 78.1 66 67% 80 29.92 1012.4
15 00:53 SE 7 10.00 Fair CLR 79 66 93.9 79 65% 81 29.94 1012.8
14 23:53 SE 8 10.00 Fair CLR 81 64 57% 83 29.95 1013.1
14 22:53 SE 5 10.00 Fair CLR 82 62.1 51% 83 29.94 1012.8
14 21:53 SE 9 10.00 Fair CLR 84.9 61 45% 85 29.92 1012.2
14 20:53 SE 8 10.00 Fair CLR 87.1 63 45% 88 29.9 1011.6
14 19:53 E 12 10.00 Fair CLR 91 62.1 38% 92 29.89 1011.3
14 18:53 E 7 10.00 Fair CLR 93.9 62.1 96.1 90 35% 95 29.89 1011.0
14 17:53 SE 5 10.00 A Few Clouds FEW050 95 63 35% 96 29.89 1011.3
14 16:53 Vrbl 3 10.00 A Few Clouds FEW050 95 63 35% 96 29.91 1011.7
14 15:53 E 5 10.00 A Few Clouds FEW050 95 64 36% 97 29.92 1012.2
14 14:53 S 9 10.00 A Few Clouds FEW050 93 64.9 40% 95 29.94 1012.8
14 13:53 S 9 10.00 A Few Clouds FEW050 91.9 66 43% 95 29.96 1013.4
14 12:53 Calm 10.00 Fair CLR 90 66.9 90 75 47% 93 29.97 1013.9
14 11:53 SE 9 10.00 Fair CLR 89.1 68 50% 93 29.98 1014.4
14 10:53 S 7 10.00 Fair CLR 87.1 69.1 55% 91 29.99 1014.7
14 09:53 S 6 10.00 A Few Clouds FEW250 84.9 70 61% 89 30 1014.8
14 08:53 S 5 10.00 A Few Clouds FEW005 FEW250 81 68 65% 84 30 1014.8
14 07:53 S 9 10.00 A Few Clouds FEW250 78.1 69.1 74% 80 29.97 1013.8
14 06:53 S 5 10.00 A Few Clouds FEW250 75 69.1 81 73.9 82% 75 29.96 1013.4
14 05:53 S 5 10.00 A Few Clouds FEW250 75 68 79% 76 29.94 1013.0
14 04:53 SE 6 10.00 A Few Clouds FEW250 75 68 79% 76 29.94 1012.8
14 03:53 NE 3 10.00 A Few Clouds FEW250 75.9 68 77% 77 29.96 1013.4
14 02:53 E 3 10.00 Fair CLR 78.1 68 71% 80 29.94 1012.8
14 01:53 SE 5 10.00 Fair CLR 78.1 66.9 69% 80 29.94 1012.8
14 00:53 Calm 10.00 Fair CLR 80.1 66.9 91.9 80.1 64% 82 29.95 1013.1
13 23:53 S 5 10.00 Fair CLR 81 66.9 62% 83 29.95 1013.1
13 22:53 SE 8 10.00 Fair CLR 82.9 69.1 63% 87 29.92 1012.2
13 21:53 SE 8 10.00 A Few Clouds FEW250 84 69.1 61% 88 29.89 1011.2
13 20:53 SE 10 10.00 A Few Clouds FEW170 FEW250 86 70 59% 91 29.88 1010.8
13 19:53 SE 9 10.00 Fair CLR 90 69.1 50% 95 29.88 1010.9
13 18:53 SE 8 10.00 A Few Clouds FEW055 91.9 68 93 88 46% 96 29.89 1011.0
13 17:53 SE 8 10.00 A Few Clouds FEW055 93 68 44% 97 29.9 1011.4
13 16:53 S 7 10.00 A Few Clouds FEW055 93 68 44% 97 29.91 1011.9
13 15:53 SW 6 10.00 A Few Clouds FEW055 91.9 66.9 44% 95 29.93 1012.4
13 14:53 S 3 10.00 A Few Clouds FEW055 91 69.1 49% 96 29.94 1012.9
13 13:53 S 3 10.00 Partly Cloudy SCT046 90 70 52% 95 29.96 1013.6
13 12:53 S 3 10.00 Partly Cloudy SCT040 88 71.1 89.1 73.9 57% 94 29.97 1013.9
13 11:53 S 8 10.00 Partly Cloudy SCT035 86 71.1 61% 92 29.98 1014.1
13 10:53 S 10 10.00 A Few Clouds FEW040 84.9 71.1 63% 90 29.98 1014.1
13 09:53 S 10 10.00 A Few Clouds FEW005 FEW200 82.9 69.1 63% 87 29.98 1014.1
13 08:53 S 7 10.00 A Few Clouds FEW200 80.1 69.1 69% 83 29.97 1013.9
13 07:53 SE 7 10.00 Fair CLR 77 69.1 77% 79 29.95 1013.4
13 06:53 S 5 10.00 Fair CLR 73.9 69.1 78.1 73.9 85% 29.94 1012.8
13 05:53 SE 3 10.00 A Few Clouds FEW250 73.9 68 82% 29.92 1012.2
13 04:53 S 6 10.00 Fair CLR 75 69.1 82% 75 29.92 1012.0
13 03:53 SE 3 10.00 Fair CLR 75 69.1 82% 75 29.91 1012.0
13 02:53 SE 5 10.00 Fair CLR 75.9 69.1 79% 77 29.92 1012.1
13 01:53 SE 6 10.00 Fair CLR 77 69.1 77% 79 29.92 1012.3
13 00:53 SE 6 10.00 Fair CLR 78.1 69.1 88 78.1 74% 80 29.93 1012.6
12 23:53 SE 6 10.00 Fair CLR 79 70 74% 82 29.94 1012.8
12 22:53 SE 5 10.00 Fair CLR 80.1 69.1 69% 83 29.94 1012.7
Date Time (cdt) Wind (mph) Vis. (mi.) Weather Sky Cond. Air Dwpt Max. Min. Relative Humidity Wind Chill (°F) Heat Index (°F) altimeter (in) sea level (mb) 1 hr 3 hr 6 hr
6 hour
Temperature (ºF) Pressure Precipitation (in)